VANOK Weather Reports


Display with metric or nautical units.
time (UTC)temp
F
wind
direction
speed
MPH
gust
MPH
rain 1hr
in
rain 24hr
in
rain mn
in
humidity
%
barometer
mb
20260506032724 40 261 6.0 9.0 0.00 0.00 0.00 79 1011.7
20260506030725 39 265 8.0 10.0 0.00 0.00 0.00 81 1011.6
20260506024725 39 278 8.0 10.0 0.00 0.00 0.00 82 1011.4
20260506022724 39 282 9.0 11.0 0.00 0.00 0.00 80 1011.3
20260506020724 40 289 9.0 12.0 0.00 0.00 0.00 78 1011.1
20260506014724 40 296 9.0 11.0 0.00 0.00 0.00 81 1010.9
20260506012724 40 282 9.0 11.0 0.00 0.00 0.00 80 1010.7
20260506010725 40 280 9.0 13.0 0.00 0.00 0.00 81 1010.5
20260506004724 40 276 9.0 13.0 0.00 0.00 0.00 82 1010.3
20260506002724 39 272 8.0 11.0 0.00 0.00 0.00 89 1010.2
20260506000724 40 261 7.0 11.0 0.00 0.00 0.00 86 1010.1
20260505234724 40 271 9.0 12.0 0.00 0.00 0.00 84 1010.0
20260505232724 40 270 9.0 12.0 0.00 0.00 0.00 87 1009.9
20260505230724 40 265 9.0 12.0 0.00 0.00 0.00 90 1009.9
20260505224724 40 257 8.0 9.0 0.00 0.00 0.00 90 1009.8
20260505222723 39 252 9.0 10.0 0.00 0.00 0.00 90 1009.8
20260505220724 40 255 7.0 8.0 0.00 0.00 0.00 89 1009.7
20260505214724 39 265 7.0 10.0 0.00 0.00 0.00 90 1009.7
20260505212724 40 258 9.0 11.0 0.00 0.00 0.00 88 1009.6
20260505210723 40 254 9.0 11.0 0.00 0.00 0.00 88 1009.5
20260505204724 40 254 9.0 11.0 0.00 0.00 0.00 89 1009.5
20260505202724 40 256 9.0 11.0 0.00 0.00 0.00 89 1009.4
20260505200723 40 258 9.0 13.0 0.00 0.00 0.00 90 1009.2
20260505194722 40 258 11.0 13.0 0.00 0.00 0.00 88 1009.1
20260505192723 41 262 10.0 13.0 0.00 0.00 0.00 86 1009.1
20260505190723 40 263 8.0 12.0 0.00 0.00 0.00 85 1009.1
20260505184723 41 270 8.0 11.0 0.00 0.00 0.00 76 1008.9
20260505182722 41 281 8.0 11.0 0.00 0.00 0.00 74 1008.8
20260505180723 42 279 9.0 12.0 0.00 0.00 0.00 71 1008.6
20260505174723 42 274 10.0 14.0 0.00 0.00 0.00 68 1008.4
20260505172722 43 268 9.0 14.0 0.00 0.00 0.00 64 1008.4
20260505170722 43 266 13.0 16.0 0.00 0.00 0.00 65 1008.3
20260505164722 44 260 12.0 16.0 0.00 0.00 0.00 61 1008.2
20260505162722 44 258 14.0 18.0 0.00 0.00 0.00 56 1008.1
20260505160722 44 259 13.0 17.0 0.00 0.00 0.00 57 1008.1
20260505152722 45 269 14.0 17.0 0.00 0.00 0.00 56 1008.1
20260505150722 45 270 9.0 14.0 0.00 0.00 0.00 59 1008.0
20260505124721 45 260 13.0 16.0 0.00 0.00 0.00 70 1007.3
20260505122721 44 262 13.0 16.0 0.00 0.00 0.00 71 1007.1
20260505120721 45 278 13.0 18.0 0.00 0.00 0.00 68 1007.1
20260505114721 44 284 11.0 16.0 0.00 0.00 0.00 70 1007.0
20260505112721 45 286 13.0 18.0 0.00 0.00 0.00 64 1006.8
20260505110721 45 276 15.0 19.0 0.00 0.00 0.00 65 1006.6
20260505100721 44 287 14.0 20.0 0.00 0.00 0.00 69 1006.0
20260505094720 45 284 17.0 23.0 0.00 0.00 0.00 71 1005.8
20260505092720 45 282 15.0 23.0 0.00 0.00 0.00 73 1005.5
20260505090721 44 282 14.0 22.0 0.00 0.00 0.00 75 1005.3
20260505084722 44 279 15.0 23.0 0.00 0.00 0.00 76 1005.1
20260505082721 44 277 19.0 24.0 0.00 0.00 0.00 78 1004.7
20260505080721 44 275 16.0 21.0 0.00 0.00 0.00 78 1004.4
20260505074720 44 275 17.0 21.0 0.00 0.00 0.00 77 1004.1
20260505072720 44 273 16.0 22.0 0.00 0.00 0.00 78 1003.7
20260505070720 44 275 15.0 21.0 0.00 0.00 0.00 77 1003.4
20260505064720 44 273 15.0 21.0 0.00 0.00 0.00 82 1002.9
20260505062720 44 276 18.0 23.0 0.00 0.00 0.00 81 1002.6
20260505060720 44 276 18.0 23.0 0.00 0.00 0.00 81 1002.3
20260505054720 44 274 20.0 26.0 0.00 0.00 0.00 79 1002.1
20260505052720 45 258 19.0 24.0 0.00 0.00 0.00 77 1001.8
20260505050719 45 257 19.0 27.0 0.00 0.00 0.00 75 1001.7
20260505040719 45 239 19.0 26.0 0.00 0.00 0.00 77 1001.2
20260505034720 45 237 19.0 27.0 0.00 0.00 0.00 75 1001.2